Flag for Finland Weather past 2 weeks in Mariehamn, Finland

Now
30 °F

Clear.


Feels Like: 27 °F
Forecast: 29 / 47 °F
Wind: 3 mph from North

Location: Mariehamn / Aland Island


UV Index: 0 (Low)

Visibility: 10 mi


Pressure: 30.54 "Hg

Humidity: 86%

Dew point: 27 °F

Location of MariehamnLocation

Historic Weather in Mariehamn

°F

Mariehamn temperature yesterday

Maximum temperature yesterday: 48 °F (at 12:50 PM)
Minimum temperature yesterday: 32 °F (at 11:20 PM)
Average temperature yesterday: 42 °F

Past Weeks' High & Low Weather Summary

 TemperatureHumidityPressure
High63 °F (Apr 21, 3:05 PM)100% (Apr 11, 6:50 AM)30.54 "Hg (Apr 11, 6:50 AM)
Low28 °F (Apr 9, 10:20 PM)29% (Apr 23, 10:50 AM)29.27 "Hg (Apr 14, 1:50 AM)
Average42 °F76%29.98 "Hg
* Reported Apr 9 12:20 AM — Apr 24 12:20 AM, Mariehamn, Weather by CustomWeather, © 2014

Note: Actual official high and low records may vary slightly from our data, if they occured in-between our weather recording intervals... More about our weather records

Advertising

Historic Weather Conditions — Data for Previous 24 hours

 ConditionsComfort  
Time TempWeatherWind HumidityBarometerVisibility
12:20 AM
Apr 24
28 °FClear.2 mph93%30.54 "Hg10 mi
11:50 PM
Apr 23
32 °FClear.3 mph75%30.54 "Hg10 mi
11:20 PM32 °FClear.6 mph80%30.54 "Hg10 mi
10:50 PM34 °FClear.8 mph75%30.54 "Hg10 mi
10:20 PM36 °FClear.9 mph70%30.51 "Hg10 mi
9:50 PM37 °FSunny.9 mph65%30.51 "Hg10 mi
9:20 PM37 °FSunny.8 mph65%30.51 "Hg10 mi
8:50 PM39 °FSunny.10 mph61%30.51 "Hg10 mi
8:20 PM41 °FSunny.12 mph57%30.51 "Hg10 mi
7:50 PM43 °FSunny.12 mph53%30.51 "Hg10 mi
7:20 PM43 °FSunny.15 mph46%30.48 "Hg10 mi
6:50 PM45 °FSunny.13 mph46%30.51 "Hg10 mi
6:20 PM45 °FPassing clouds.13 mph42%30.48 "HgN/A
5:50 PM46 °FPassing clouds.15 mph37%30.48 "HgN/A
5:20 PM46 °FPassing clouds.14 mph34%30.48 "HgN/A
4:50 PM46 °FPassing clouds.16 mph34%30.48 "HgN/A
4:20 PM46 °FSunny.15 mph34%30.48 "Hg10 mi
3:50 PM48 °FSunny.16 mph32%30.48 "Hg10 mi
3:20 PM46 °FPassing clouds.13 mph32%30.48 "HgN/A
2:50 PM46 °FPassing clouds.14 mph32%30.51 "HgN/A
2:20 PM46 °FPassing clouds.14 mph29%30.48 "HgN/A
1:50 PM46 °FPassing clouds.14 mph32%30.48 "HgN/A
1:20 PM48 °FSunny.17 mph29%30.48 "Hg10 mi
12:50 PM48 °FSunny.17 mph29%30.48 "Hg10 mi
12:20 PM46 °FSunny.17 mph32%30.48 "Hg10 mi
11:50 AM46 °FPassing clouds.15 mph29%30.48 "HgN/A
11:20 AM46 °FPassing clouds.10 mph32%30.48 "HgN/A
10:50 AM46 °FPassing clouds.12 mph29%30.45 "HgN/A
10:20 AM45 °FPassing clouds.12 mph31%30.45 "HgN/A
9:50 AM45 °FSunny.13 mph37%30.45 "Hg10 mi
9:20 AM45 °FSunny.13 mph42%30.45 "Hg10 mi
8:50 AM45 °FSunny.10 mph46%30.42 "Hg10 mi
8:20 AM43 °FPassing clouds.8 mph53%30.42 "HgN/A
7:50 AM41 °FSunny.8 mph61%30.39 "Hg10 mi
7:20 AM39 °FSunny.7 mph65%30.39 "Hg10 mi
6:50 AM37 °FClear.5 mph65%30.39 "Hg10 mi
6:20 AM36 °FClear.6 mph75%30.36 "Hg10 mi
6:00 AM36 °FClear.6 mph75%30.36 "Hg10 mi
5:20 AM36 °FClear.5 mph75%30.36 "Hg10 mi
4:50 AM36 °FClear.6 mph81%30.33 "Hg10 mi
4:20 AM37 °FClear.7 mph75%30.33 "Hg10 mi
3:50 AM37 °FClear.6 mph75%30.30 "Hg10 mi
3:20 AM39 °FClear.8 mph70%30.30 "Hg10 mi
2:50 AM39 °FClear.9 mph75%30.30 "Hg10 mi
2:20 AM41 °FClear.8 mph66%30.27 "Hg10 mi
1:50 AM43 °FClear.9 mph61%30.27 "Hg10 mi
1:20 AM43 °FClear.13 mph61%30.24 "Hg10 mi
Weather by CustomWeather, © 2014

See weather overview